GW6982 Weather Reports


Display with metric or nautical units.
time (UTC)temp
F
wind
direction
speed
MPH
gust
MPH
rain 1hr
in
rain 24hr
in
rain mn
in
humidity
%
barometer
mb
20260507124719 56 337 5.0 11.0 0.00 0.00 0.00 34 1070.3
20260507124216 56 61 4.0 7.0 0.00 0.00 0.00 36 1070.5
20260507123715 55 65 7.0 10.0 0.00 0.00 0.00 35 1070.2
20260507123212 55 19 9.0 11.0 0.00 0.00 0.00 36 1070.3
20260507122707 55 0 7.0 13.0 0.00 0.00 0.00 36 1070.5
20260507122203 55 357 7.0 9.0 0.00 0.00 0.00 36 1070.0
20260507121659 54 335 8.0 13.0 0.00 0.00 0.00 36 1070.0
20260507121155 54 51 5.0 8.0 0.00 0.00 0.00 38 1070.2
20260507120651 54 324 5.0 10.0 0.00 0.00 0.00 38 1070.0
20260507120148 54 14 4.0 6.0 0.00 0.00 0.00 38 1070.0
20260507115644 54 337 2.0 9.0 0.00 0.00 0.00 38 1069.9
20260507115140 53 358 5.0 8.0 0.00 0.00 0.00 39 1070.0
20260507114636 53 0 3.0 9.0 0.00 0.00 0.00 40 1070.0
20260507114133 53 28 1.0 2.0 0.00 0.00 0.00 41 1069.9
20260507113631 53 350 2.0 3.0 0.00 0.00 0.00 41 1070.0
20260507113127 53 61 1.0 3.0 0.00 0.00 0.00 41 1069.5
20260507112626 53 13 5.0 7.0 0.00 0.00 0.00 41 1069.4
20260507112122 53 317 1.0 2.0 0.00 0.00 0.00 40 1069.2
20260507111619 54 75 1.0 2.0 0.00 0.00 0.00 39 1068.9
20260507111116 54 37 1.0 3.0 0.00 0.00 0.00 37 1069.0
20260507110612 54 5 1.0 7.0 0.00 0.00 0.00 37 1068.9
20260507110109 54 25 1.0 3.0 0.00 0.00 0.00 37 1068.6
20260507105605 53 329 3.0 4.0 0.00 0.00 0.00 39 1068.5
20260507105101 53 334 2.0 2.0 0.00 0.00 0.00 40 1068.4
20260507104559 53 330 1.0 3.0 0.00 0.00 0.00 40 1068.3
20260507104055 53 330 1.0 1.0 0.00 0.00 0.00 40 1068.5
20260507103551 54 337 3.0 3.0 0.00 0.00 0.00 38 1068.4
20260507103049 54 344 5.0 6.0 0.00 0.00 0.00 39 1068.3
20260507102545 55 330 6.0 8.0 0.00 0.00 0.00 38 1068.3
20260507102041 55 359 6.0 7.0 0.00 0.00 0.00 38 1068.4
20260507101536 55 337 6.0 7.0 0.00 0.00 0.00 38 1068.2
20260507101033 55 335 8.0 9.0 0.00 0.00 0.00 38 1068.1
20260507100531 55 346 3.0 8.0 0.00 0.00 0.00 39 1068.1
20260507100029 55 325 9.0 11.0 0.00 0.00 0.00 39 1067.8
20260507095526 55 334 6.0 11.0 0.00 0.00 0.00 40 1068.0
20260507095023 55 355 4.0 9.0 0.00 0.00 0.00 40 1068.1
20260507094519 54 323 5.0 7.0 0.00 0.00 0.00 43 1067.8
20260507094016 54 329 1.0 2.0 0.00 0.00 0.00 45 1068.1
20260507093513 55 356 1.0 4.0 0.00 0.00 0.00 45 1067.7
20260507093012 55 328 4.0 4.0 0.00 0.00 0.00 44 1067.8
20260507092508 55 325 4.0 4.0 0.00 0.00 0.00 44 1067.8
20260507092005 55 343 3.0 7.0 0.00 0.00 0.00 44 1067.6
20260507091502 54 338 4.0 6.0 0.00 0.00 0.00 45 1067.5
20260507090957 54 342 4.0 8.0 0.00 0.00 0.00 45 1067.8
20260507090453 54 304 2.0 4.0 0.00 0.00 0.00 46 1067.6
20260507085950 54 294 2.0 3.0 0.00 0.00 0.00 47 1067.6
20260507085447 54 281 2.0 3.0 0.00 0.00 0.00 47 1067.5
20260507084944 54 302 1.0 2.0 0.00 0.00 0.00 47 1067.7
20260507084441 55 324 2.0 4.0 0.00 0.00 0.00 46 1067.7
20260507083938 55 323 3.0 3.0 0.00 0.00 0.00 46 1067.4
20260507083434 55 333 5.0 7.0 0.00 0.00 0.00 46 1067.2
20260507082931 55 359 2.0 3.0 0.00 0.00 0.00 46 1067.2
20260507082427 55 349 2.0 4.0 0.00 0.00 0.00 46 1067.0
20260507081924 55 339 5.0 6.0 0.00 0.00 0.00 46 1067.0
20260507081420 54 338 5.0 8.0 0.00 0.00 0.00 47 1066.9
20260507080917 53 19 4.0 4.0 0.00 0.00 0.00 49 1066.6
20260507080413 53 238 0.0 0.0 0.00 0.00 0.00 50 1066.9
20260507075908 54 240 0.0 1.0 0.00 0.00 0.00 49 1067.0
20260507075405 54 122 1.0 3.0 0.00 0.00 0.00 49 1066.9
20260507074901 54 338 3.0 3.0 0.00 0.00 0.00 48 1066.4
20260507074358 55 68 4.0 7.0 0.00 0.00 0.00 47 1066.5
20260507073856 55 351 2.0 3.0 0.00 0.00 0.00 47 1066.4
20260507073352 55 348 3.0 8.0 0.00 0.00 0.00 47 1066.7
20260507072849 55 5 1.0 2.0 0.00 0.00 0.00 48 1066.4
20260507072347 55 51 3.0 7.0 0.00 0.00 0.00 47 1066.3
20260507071844 55 6 3.0 4.0 0.00 0.00 0.00 47 1066.3
20260507071341 55 85 2.0 4.0 0.00 0.00 0.00 46 1066.0
20260507070837 55 324 4.0 9.0 0.00 0.00 0.00 46 1065.7
20260507070335 55 14 5.0 7.0 0.00 0.00 0.00 47 1065.5
20260507065831 55 50 3.0 7.0 0.00 0.00 0.00 47 1065.6
20260507065328 56 295 4.0 9.0 0.00 0.00 0.00 46 1065.8
20260507064825 56 352 8.0 10.0 0.00 0.00 0.00 45 1065.8
20260507064324 57 0 8.0 11.0 0.00 0.00 0.00 44 1065.7
20260507063821 57 337 9.0 9.0 0.00 0.00 0.00 45 1066.0
20260507063318 57 353 3.0 10.0 0.00 0.00 0.00 44 1066.0
20260507062814 57 302 6.0 11.0 0.00 0.00 0.00 44 1066.0
20260507062312 56 358 9.0 11.0 0.00 0.00 0.00 45 1065.9
20260507061810 56 357 6.0 13.0 0.00 0.00 0.00 45 1065.6
20260507061307 55 6 9.0 11.0 0.00 0.00 0.00 46 1065.9
20260507060806 55 20 3.0 4.0 0.00 0.00 0.00 48 1066.0
20260507060302 55 61 2.0 4.0 0.00 0.00 0.00 47 1065.9
20260507055758 56 19 1.0 2.0 0.00 0.00 0.00 47 1066.0
20260507055253 56 338 2.0 4.0 0.00 0.00 0.00 45 1065.9
20260507054750 57 335 4.0 9.0 0.00 0.00 0.00 45 1065.9
20260507054247 57 350 4.0 10.0 0.00 0.00 0.00 44 1066.1
20260507053744 56 313 3.0 4.0 0.00 0.00 0.00 46 1065.8
20260507053242 56 32 1.0 6.0 0.00 0.00 0.00 45 1065.7
20260507052741 57 11 3.0 7.0 0.00 0.00 0.00 44 1065.7
20260507052236 57 336 5.0 6.0 0.00 0.00 0.00 44 1065.7
20260507051735 57 323 4.0 6.0 0.00 0.00 0.00 44 1065.5
20260507051231 58 346 4.0 7.0 0.00 0.00 0.00 43 1065.3
20260507050728 57 324 5.0 10.0 0.00 0.00 0.00 44 1065.3
20260507050225 57 336 6.0 7.0 0.00 0.00 0.00 44 1065.6
20260507045722 56 335 3.0 4.0 0.00 0.00 0.00 45 1065.2
20260507045218 56 339 2.0 4.0 0.00 0.00 0.00 46 1065.2
20260507044715 55 9 2.0 3.0 0.00 0.00 0.00 46 1065.5
20260507044212 56 14 1.0 1.0 0.00 0.00 0.00 46 1065.3
20260507043708 56 345 1.0 3.0 0.00 0.00 0.00 45 1065.1
20260507043205 56 295 2.0 3.0 0.00 0.00 0.00 45 1065.2
20260507042701 56 345 0.0 1.0 0.00 0.00 0.00 45 1065.0
20260507042156 55 284 2.0 3.0 0.00 0.00 0.00 45 1065.2
20260507041654 55 282 0.0 2.0 0.00 0.00 0.00 44 1065.0
20260507041150 55 237 0.0 0.0 0.00 0.00 0.00 45 1064.9
20260507040647 56 212 0.0 1.0 0.00 0.00 0.00 44 1064.7
20260507040143 56 142 0.0 1.0 0.00 0.00 0.00 44 1064.3
20260507035639 57 145 1.0 1.0 0.00 0.00 0.00 43 1064.7
20260507035135 58 300 0.0 0.0 0.00 0.00 0.00 41 1064.6
20260507034633 58 250 1.0 1.0 0.00 0.00 0.00 41 1064.7
20260507034130 58 67 1.0 2.0 0.00 0.00 0.00 41 1064.6
20260507033628 58 16 3.0 6.0 0.00 0.00 0.00 41 1064.7
20260507033125 59 359 6.0 7.0 0.00 0.00 0.00 40 1064.6
20260507032623 59 19 1.0 3.0 0.00 0.00 0.00 40 1064.2
20260507032118 59 341 5.0 8.0 0.00 0.00 0.00 40 1064.7
20260507031615 59 358 2.0 3.0 0.00 0.00 0.00 40 1064.6
20260507031112 59 318 5.0 9.0 0.00 0.00 0.00 40 1064.7
20260507030609 59 345 3.0 3.0 0.00 0.00 0.00 40 1064.4
20260507030107 59 15 5.0 7.0 0.00 0.00 0.00 39 1064.7
20260507025603 58 50 3.0 6.0 0.00 0.00 0.00 41 1064.3
20260507025100 59 316 4.0 4.0 0.00 0.00 0.00 41 1064.0
20260507024558 59 156 0.0 1.0 0.00 0.00 0.00 40 1063.8
20260507024055 60 98 1.0 3.0 0.00 0.00 0.00 40 1063.9
20260507023550 60 322 2.0 2.0 0.00 0.00 0.00 39 1063.8
20260507023049 60 124 2.0 6.0 0.00 0.00 0.00 39 1063.6
20260507022545 61 130 0.0 2.0 0.00 0.00 0.00 39 1063.8
20260507022040 61 135 1.0 2.0 0.00 0.00 0.00 38 1063.4
20260507021537 61 85 2.0 3.0 0.00 0.00 0.00 38 1063.8
20260507021033 62 111 0.0 0.0 0.00 0.00 0.00 37 1063.8
20260507020531 63 11 1.0 4.0 0.00 0.00 0.00 36 1063.8
20260507020027 63 78 0.0 1.0 0.00 0.00 0.00 37 1063.5
20260507015526 63 98 1.0 2.0 0.00 0.00 0.00 37 1063.4
20260507015023 64 341 4.0 6.0 0.00 0.00 0.00 36 1063.2
20260507014519 64 6 4.0 8.0 0.00 0.00 0.00 35 1063.0
20260507014015 64 283 6.0 7.0 0.00 0.00 0.00 35 1062.9
20260507013512 64 271 5.0 6.0 0.00 0.00 0.00 35 1062.7
20260507013009 64 352 0.0 3.0 0.00 0.00 0.00 35 1062.4
20260507012506 65 159 4.0 7.0 0.00 0.00 0.00 34 1062.4
20260507012002 66 125 8.0 13.0 0.00 0.00 0.00 31 1062.3
20260507011500 67 359 3.0 14.0 0.00 0.00 0.00 25 1062.1
20260507010955 70 138 6.0 11.0 0.00 0.00 0.00 16 1061.4
20260507010450 69 123 6.0 11.0 0.00 0.00 0.00 15 1061.3
20260507005947 70 15 2.0 2.0 0.00 0.00 0.00 16 1061.0
20260507005444 71 58 1.0 3.0 0.00 0.00 0.00 14 1060.8
20260507004940 72 106 0.0 3.0 0.00 0.00 0.00 13 1060.8
20260507004437 73 107 4.0 7.0 0.00 0.00 0.00 13 1060.1
20260507003935 72 64 3.0 4.0 0.00 0.00 0.00 13 1060.4
20260507003430 73 177 2.0 4.0 0.00 0.00 0.00 13 1060.4
20260507002925 73 197 2.0 11.0 0.00 0.00 0.00 13 1060.0
20260507002422 74 307 8.0 16.0 0.00 0.00 0.00 12 1060.1
20260507001919 74 42 8.0 11.0 0.00 0.00 0.00 12 1060.2
20260507001416 74 314 1.0 10.0 0.00 0.00 0.00 12 1060.4
20260507000914 73 278 25.0 33.0 0.00 0.00 0.00 12 1060.1
20260507000408 71 140 4.0 6.0 0.00 0.00 0.00 14 1060.1
20260506235905 70 121 2.0 4.0 0.00 0.00 0.00 15 1059.8
20260506235402 72 58 1.0 2.0 0.00 0.00 0.00 14 1059.8
20260506234857 71 160 0.0 0.0 0.00 0.00 0.00 14 1060.0
20260506234355 71 211 3.0 7.0 0.00 0.00 0.00 14 1059.9
20260506233853 72 239 0.0 2.0 0.00 0.00 0.00 14 1060.1
20260506233349 71 153 6.0 8.0 0.00 0.00 0.00 14 1060.0
20260506232846 71 146 3.0 6.0 0.00 0.00 0.00 15 1060.2
20260506232342 72 122 6.0 9.0 0.00 0.00 0.00 14 1060.2
20260506231838 72 161 2.0 8.0 0.00 0.00 0.00 14 1060.2
20260506231336 72 135 0.0 1.0 0.00 0.00 0.00 14 1060.7
20260506230833 72 119 4.0 7.0 0.00 0.00 0.00 14 1060.8
20260506230330 73 117 2.0 3.0 0.00 0.00 0.00 13 1060.5
20260506225826 74 343 5.0 8.0 0.00 0.00 0.00 12 1060.1
20260506225323 74 269 8.0 15.0 0.00 0.00 0.00 12 1060.7
20260506224820 72 33 12.0 17.0 0.00 0.00 0.00 13 1060.8
20260506224318 73 132 1.0 1.0 0.00 0.00 0.00 13 1060.6
20260506223814 73 282 4.0 16.0 0.00 0.00 0.00 13 1060.5
20260506223309 73 340 3.0 15.0 0.00 0.00 0.00 13 1060.7
20260506222806 73 240 6.0 11.0 0.00 0.00 0.00 12 1060.8
20260506222305 74 239 11.0 15.0 0.00 0.00 0.00 12 1060.8
20260506221800 74 235 9.0 27.0 0.00 0.00 0.00 12 1060.7
20260506221257 74 241 14.0 17.0 0.00 0.00 0.00 12 1060.7
20260506220755 74 327 8.0 34.0 0.00 0.00 0.00 12 1060.6
20260506220255 74 251 9.0 23.0 0.00 0.00 0.00 12 1060.6
20260506215752 74 264 20.0 26.0 0.00 0.00 0.00 12 1061.0
20260506215248 74 311 16.0 22.0 0.00 0.00 0.00 12 1061.0
20260506214744 74 203 2.0 21.0 0.00 0.00 0.00 12 1061.2
20260506214242 74 293 17.0 23.0 0.00 0.00 0.00 12 1061.2
20260506213740 74 255 14.0 17.0 0.00 0.00 0.00 12 1061.3
20260506213237 75 231 7.0 9.0 0.00 0.00 0.00 12 1061.2
20260506212734 75 337 4.0 9.0 0.00 0.00 0.00 12 1061.5
20260506212230 75 161 7.0 13.0 0.00 0.00 0.00 12 1061.5
20260506211725 75 279 6.0 8.0 0.00 0.00 0.00 12 1061.3
20260506211221 75 305 4.0 9.0 0.00 0.00 0.00 12 1061.2
20260506210719 76 312 10.0 19.0 0.00 0.00 0.00 11 1061.5
20260506210216 76 282 8.0 18.0 0.00 0.00 0.00 11 1061.5
20260506205713 76 268 7.0 17.0 0.00 0.00 0.00 11 1061.4
20260506205208 76 288 8.0 14.0 0.00 0.00 0.00 11 1061.4
20260506204705 77 314 9.0 11.0 0.00 0.00 0.00 11 1061.2
20260506204202 77 1 7.0 13.0 0.00 0.00 0.00 10 1061.2
20260506203700 77 313 10.0 21.0 0.00 0.00 0.00 10 1061.0
20260506203157 77 0 11.0 22.0 0.00 0.00 0.00 10 1060.9
20260506202655 78 287 12.0 22.0 0.00 0.00 0.00 10 1060.8
20260506202150 78 297 13.0 25.0 0.00 0.00 0.00 10 1060.8
20260506201648 78 262 18.0 25.0 0.00 0.00 0.00 10 1060.7
20260506201144 78 262 14.0 17.0 0.00 0.00 0.00 9 1061.0
20260506200641 78 288 5.0 13.0 0.00 0.00 0.00 9 1060.9
20260506200138 79 295 17.0 26.0 0.00 0.00 0.00 9 1060.8
20260506195635 79 306 13.0 21.0 0.00 0.00 0.00 9 1060.8
20260506195131 79 268 15.0 27.0 0.00 0.00 0.00 8 1060.5
20260506194629 79 279 11.0 14.0 0.00 0.00 0.00 8 1060.2
20260506194124 79 279 8.0 17.0 0.00 0.00 0.00 8 1060.4
20260506193623 80 298 13.0 32.0 0.00 0.00 0.00 8 1060.1
20260506193119 80 255 9.0 24.0 0.00 0.00 0.00 8 1060.1
20260506192616 80 304 10.0 22.0 0.00 0.00 0.00 8 1059.9
20260506192112 80 295 10.0 25.0 0.00 0.00 0.00 8 1060.0
20260506191609 81 287 11.0 32.0 0.00 0.00 0.00 8 1059.9
20260506191105 81 322 2.0 7.0 0.00 0.00 0.00 8 1059.7
20260506190603 81 4 8.0 17.0 0.00 0.00 0.00 7 1059.7
20260506190059 81 289 18.0 29.0 0.00 0.00 0.00 8 1059.6
20260506185556 81 292 5.0 13.0 0.00 0.00 0.00 10 1059.6
20260506185053 80 286 4.0 17.0 0.00 0.00 0.00 11 1059.9
20260506184550 76 304 3.0 4.0 0.00 0.00 0.00 44 1059.7
20260506184047 76 267 1.0 1.0 0.00 0.00 0.00 45 1059.2
20260506183543 75 160 0.0 0.0 0.00 0.00 0.00 47 1059.3
20260506183040 74 148 1.0 3.0 0.00 0.00 0.00 48 1059.4
20260506182537 75 135 1.0 3.0 0.00 0.00 0.00 49 1059.1
20260506182035 75 116 1.0 3.0 0.00 0.00 0.00 49 1059.2
20260506181532 77 109 0.0 1.0 0.00 0.00 0.00 47 1059.4
20260506181029 75 107 0.0 1.0 0.00 0.00 0.00 47 1059.4
20260506180525 76 136 1.0 2.0 0.00 0.00 0.00 47 1059.3
20260506180022 75 174 1.0 2.0 0.00 0.00 0.00 49 1059.2
20260506175519 73 194 1.0 3.0 0.00 0.00 0.00 52 1059.2
20260506175015 73 119 0.0 2.0 0.00 0.00 0.00 51 1059.8
20260506174514 74 355 1.0 3.0 0.00 0.00 0.00 50 1059.4
20260506174009 74 280 0.0 2.0 0.00 0.00 0.00 51 1059.6
20260506173508 73 140 0.0 2.0 0.00 0.00 0.00 52 1059.9
20260506173004 76 213 3.0 4.0 0.00 0.00 0.00 50 1059.9
20260506172502 73 97 1.0 2.0 0.00 0.00 0.00 50 1059.9
20260506171957 73 138 3.0 4.0 0.00 0.00 0.00 53 1059.8
20260506171455 74 277 4.0 6.0 0.00 0.00 0.00 51 1060.0
20260506170953 72 99 2.0 2.0 0.00 0.00 0.00 52 1059.8
20260506170449 72 136 0.0 3.0 0.00 0.00 0.00 55 1059.9
20260506165947 72 90 2.0 4.0 0.00 0.00 0.00 54 1059.9
20260506165446 71 106 2.0 4.0 0.00 0.00 0.00 55 1059.8
20260506164942 72 88 3.0 6.0 0.00 0.00 0.00 54 1059.9
20260506164439 71 129 3.0 3.0 0.00 0.00 0.00 55 1060.5
20260506163936 71 117 3.0 4.0 0.00 0.00 0.00 54 1060.5
20260506163431 71 100 4.0 6.0 0.00 0.00 0.00 55 1060.8
20260506162926 70 123 1.0 2.0 0.00 0.00 0.00 56 1060.6
20260506162424 72 304 2.0 3.0 0.00 0.00 0.00 53 1060.4
20260506161921 73 96 3.0 4.0 0.00 0.00 0.00 52 1060.6
20260506161420 69 114 0.0 0.0 0.00 0.00 0.00 56 1060.5
20260506160917 70 94 1.0 8.0 0.00 0.00 0.00 56 1060.6
20260506160414 70 104 6.0 7.0 0.00 0.00 0.00 57 1060.2
20260506155912 70 110 2.0 4.0 0.00 0.00 0.00 56 1060.9
20260506155409 70 203 1.0 2.0 0.00 0.00 0.00 55 1060.5
20260506153530 69 7 2.0 2.0 0.00 0.00 0.00 57 1061.3
20260506153028 70 111 1.0 4.0 0.00 0.00 0.00 56 1061.2
20260506152525 69 138 1.0 2.0 0.00 0.00 0.00 57 1061.6
20260506152023 71 160 3.0 4.0 0.00 0.00 0.00 56 1061.4
20260506151520 71 74 2.0 2.0 0.00 0.00 0.00 53 1061.7
20260506151017 71 357 2.0 3.0 0.00 0.00 0.00 55 1061.6
20260506150513 71 99 4.0 7.0 0.00 0.00 0.00 56 1061.5
20260506150011 70 30 2.0 4.0 0.00 0.00 0.00 56 1062.1
20260506145507 70 87 3.0 4.0 0.00 0.00 0.00 55 1062.2
20260506145005 69 117 3.0 6.0 0.00 0.00 0.00 57 1061.8
20260506144501 68 117 4.0 6.0 0.00 0.00 0.00 59 1061.8
20260506143959 69 113 3.0 6.0 0.00 0.00 0.00 58 1062.2
20260506143456 69 206 3.0 6.0 0.00 0.00 0.00 58 1062.2
20260506142955 69 155 4.0 7.0 0.00 0.00 0.00 60 1062.2
20260506142452 69 293 0.0 3.0 0.00 0.00 0.00 58 1062.2
20260506141949 68 153 2.0 3.0 0.00 0.00 0.00 59 1062.5
20260506141447 69 118 2.0 3.0 0.00 0.00 0.00 57 1062.5
20260506140946 69 108 2.0 3.0 0.00 0.00 0.00 58 1062.4
20260506140442 69 118 1.0 4.0 0.00 0.00 0.00 59 1062.6
20260506135939 69 202 2.0 4.0 0.00 0.00 0.00 58 1062.4
20260506135436 69 200 0.0 2.0 0.00 0.00 0.00 58 1062.6
20260506134932 68 196 2.0 4.0 0.00 0.00 0.00 59 1062.6
20260506134428 67 126 5.0 6.0 0.00 0.00 0.00 60 1062.4
20260506133926 67 121 2.0 3.0 0.00 0.00 0.00 61 1062.4
20260506133423 67 130 2.0 4.0 0.00 0.00 0.00 62 1062.7
20260506132919 67 289 2.0 2.0 0.00 0.00 0.00 61 1062.6
20260506132416 67 244 1.0 3.0 0.00 0.00 0.00 60 1062.9
20260506131914 66 261 1.0 2.0 0.00 0.00 0.00 62 1062.3
20260506131410 65 212 2.0 6.0 0.00 0.00 0.00 63 1062.7
20260506130907 66 241 2.0 3.0 0.00 0.00 0.00 63 1062.5
20260506130403 65 218 2.0 3.0 0.00 0.00 0.00 63 1063.0
20260506125902 65 242 1.0 3.0 0.00 0.00 0.00 63 1063.0
20260506125400 64 204 2.0 4.0 0.00 0.00 0.00 64 1062.6
20260506124858 65 210 2.0 3.0 0.00 0.00 0.00 63 1062.9